Location: ??????
(55.2000°N, 38.3000°E)
Time: 01:45:37
(UTC+00:00)

Cosmos 2016 Rocket - Pass Details

Date: 15 November 2025
Orbit: 946 x 999 km, 83.0° (Epoch: 12 December)

Event Time Altitude Azimuth Distance (km) Brightness Sun altitude
Rises 01:34:56 0° 348° (NNW) 3,737 7.0 -28.8°
Reaches altitude 10° 01:37:29 10° 347° (NNW) 2,783 6.3 -28.4°
Maximum altitude 01:43:53 82° 262° (W) 1,014 3.9 -27.5°
Drops below altitude 10° 01:50:13 10° 176° (S) 2,746 6.3 -26.6°
Sets 01:52:42 0° 175° (S) 3,685 7.0 -26.3°
